| time (UTC) | temp C | wind direction | speed KPH | gust KPH | rain 1hr cm | rain 24hr cm | rain mn cm | humidity % | barometer mb |
| 20260506224541 | 12 | 320 | 4.8 | 4.8 | 0.00 | 0.76 | 0.76 | 54 | 1012.0 |
| 20260506224038 | 12 | 350 | 1.6 | 3.2 | 0.00 | 0.76 | 0.76 | 54 | 1012.0 |
| 20260506223534 | 12 | 320 | 4.8 | 4.8 | 0.00 | 0.76 | 0.76 | 54 | 1012.0 |
| 20260506223030 | 12 | 352 | 1.6 | 8.0 | 0.00 | 0.76 | 0.76 | 53 | 1012.2 |
| 20260506222527 | 12 | 247 | 8.0 | 12.9 | 0.00 | 0.76 | 0.76 | 52 | 1012.0 |
| 20260506222024 | 12 | 355 | 1.6 | 11.3 | 0.00 | 0.76 | 0.76 | 51 | 1011.9 |
| 20260506221521 | 12 | 332 | 4.8 | 4.8 | 0.00 | 0.76 | 0.76 | 52 | 1011.6 |
| 20260506221019 | 12 | 348 | 1.6 | 4.8 | 0.00 | 0.76 | 0.76 | 50 | 1011.4 |
| 20260506220514 | 12 | 351 | 6.4 | 9.7 | 0.00 | 0.76 | 0.76 | 51 | 1011.4 |
| 20260506220010 | 12 | 359 | 1.6 | 8.0 | 0.00 | 0.76 | 0.76 | 51 | 1011.2 |
| 20260506215507 | 12 | 255 | 3.2 | 4.8 | 0.00 | 0.76 | 0.76 | 50 | 1011.3 |
| 20260506215003 | 12 | 354 | 6.4 | 11.3 | 0.00 | 0.76 | 0.76 | 51 | 1011.2 |
| 20260506214500 | 12 | 352 | 1.6 | 3.2 | 0.00 | 0.76 | 0.76 | 55 | 1011.2 |
| 20260506213957 | 12 | 343 | 4.8 | 9.7 | 0.00 | 0.76 | 0.76 | 53 | 1010.9 |
| 20260506213455 | 12 | 340 | 3.2 | 12.9 | 0.00 | 0.76 | 0.76 | 52 | 1011.0 |
| 20260506212952 | 12 | 345 | 3.2 | 14.5 | 0.00 | 0.76 | 0.76 | 54 | 1011.0 |
| 20260506212448 | 12 | 308 | 8.0 | 9.7 | 0.00 | 0.76 | 0.76 | 54 | 1010.9 |
| 20260506211943 | 12 | 292 | 8.0 | 11.3 | 0.00 | 0.76 | 0.76 | 54 | 1010.9 |
| 20260506211439 | 12 | 266 | 3.2 | 9.7 | 0.00 | 0.76 | 0.76 | 57 | 1010.9 |
| 20260506210936 | 12 | 342 | 1.6 | 9.7 | 0.00 | 0.76 | 0.76 | 56 | 1010.7 |
| 20260506210433 | 12 | 331 | 3.2 | 11.3 | 0.00 | 0.76 | 0.76 | 54 | 1010.9 |
| 20260506205930 | 13 | 340 | 6.4 | 14.5 | 0.00 | 0.76 | 0.76 | 54 | 1010.6 |
| 20260506205426 | 13 | 238 | 6.4 | 14.5 | 0.00 | 0.76 | 0.76 | 54 | 1010.6 |
| 20260506204922 | 13 | 3 | 3.2 | 9.7 | 0.00 | 0.76 | 0.76 | 55 | 1010.6 |
| 20260506204421 | 13 | 342 | 3.2 | 4.8 | 0.00 | 0.76 | 0.76 | 56 | 1010.6 |
| 20260506203918 | 13 | 300 | 8.0 | 12.9 | 0.00 | 0.76 | 0.76 | 54 | 1010.6 |
| 20260506203415 | 13 | 293 | 6.4 | 11.3 | 0.00 | 0.76 | 0.76 | 54 | 1010.6 |
| 20260506202911 | 13 | 326 | 6.4 | 8.0 | 0.00 | 0.76 | 0.76 | 53 | 1010.5 |
| 20260506202409 | 13 | 355 | 1.6 | 9.7 | 0.00 | 0.76 | 0.76 | 52 | 1010.5 |
| 20260506201905 | 14 | 237 | 8.0 | 9.7 | 0.00 | 0.76 | 0.76 | 53 | 1010.4 |
| 20260506201403 | 13 | 351 | 1.6 | 9.7 | 0.00 | 0.76 | 0.76 | 52 | 1010.4 |
| 20260506200859 | 14 | 318 | 3.2 | 8.0 | 0.00 | 0.76 | 0.76 | 51 | 1010.6 |
| 20260506200355 | 14 | 344 | 9.7 | 11.3 | 0.00 | 0.76 | 0.76 | 52 | 1010.4 |
| 20260506195851 | 14 | 349 | 0.0 | 4.8 | 0.00 | 0.76 | 0.76 | 53 | 1010.3 |
| 20260506195349 | 14 | 351 | 4.8 | 12.9 | 0.00 | 0.76 | 0.76 | 52 | 1010.3 |
| 20260506194846 | 14 | 333 | 3.2 | 8.0 | 0.00 | 0.76 | 0.76 | 54 | 1010.5 |
| 20260506194342 | 15 | 6 | 3.2 | 9.7 | 0.00 | 0.76 | 0.76 | 52 | 1010.4 |
| 20260506193840 | 14 | 335 | 1.6 | 8.0 | 0.00 | 0.76 | 0.76 | 54 | 1010.4 |
| 20260506193336 | 14 | 55 | 4.8 | 9.7 | 0.00 | 0.76 | 0.76 | 53 | 1010.3 |
| 20260506192833 | 15 | 340 | 3.2 | 9.7 | 0.00 | 0.76 | 0.76 | 50 | 1010.3 |
| 20260506192330 | 15 | 335 | 3.2 | 4.8 | 0.00 | 0.76 | 0.76 | 54 | 1010.1 |
| 20260506191827 | 15 | 357 | 3.2 | 8.0 | 0.00 | 0.76 | 0.76 | 52 | 1010.2 |
| 20260506191323 | 15 | 303 | 4.8 | 11.3 | 0.00 | 0.76 | 0.76 | 53 | 1010.6 |
| 20260506190820 | 15 | 39 | 3.2 | 4.8 | 0.00 | 0.76 | 0.76 | 52 | 1010.6 |
| 20260506190316 | 14 | 13 | 6.4 | 9.7 | 0.00 | 0.76 | 0.76 | 52 | 1010.4 |
| 20260506185814 | 14 | 49 | 9.7 | 12.9 | 0.00 | 0.76 | 0.76 | 53 | 1010.2 |
| 20260506185311 | 15 | 345 | 6.4 | 8.0 | 0.00 | 0.76 | 0.76 | 50 | 1010.5 |
| 20260506184808 | 15 | 231 | 11.3 | 14.5 | 0.00 | 0.76 | 0.76 | 51 | 1010.6 |
| 20260506184305 | 14 | 321 | 3.2 | 8.0 | 0.00 | 0.76 | 0.76 | 52 | 1010.6 |
| 20260506183802 | 13 | 307 | 4.8 | 11.3 | 0.00 | 0.76 | 0.76 | 54 | 1010.5 |
| 20260506183257 | 13 | 257 | 8.0 | 11.3 | 0.00 | 0.76 | 0.76 | 52 | 1010.5 |
| 20260506182754 | 14 | 293 | 6.4 | 17.7 | 0.00 | 0.76 | 0.76 | 54 | 1010.4 |
| 20260506182251 | 13 | 351 | 3.2 | 9.7 | 0.00 | 0.76 | 0.76 | 54 | 1010.5 |
| 20260506181749 | 13 | 296 | 1.6 | 11.3 | 0.00 | 0.76 | 0.76 | 54 | 1010.5 |
| 20260506181247 | 13 | 1 | 3.2 | 9.7 | 0.00 | 0.76 | 0.76 | 53 | 1010.4 |
| 20260506180744 | 13 | 7 | 3.2 | 8.0 | 0.00 | 0.76 | 0.76 | 54 | 1010.7 |
| 20260506180239 | 13 | 302 | 9.7 | 12.9 | 0.00 | 0.76 | 0.76 | 53 | 1010.5 |
| 20260506175736 | 13 | 1 | 8.0 | 16.1 | 0.00 | 0.76 | 0.76 | 53 | 1010.7 |
| 20260506175233 | 13 | 268 | 8.0 | 12.9 | 0.00 | 0.76 | 0.76 | 52 | 1010.8 |
| 20260506174731 | 13 | 318 | 3.2 | 9.7 | 0.00 | 0.76 | 0.76 | 52 | 1010.8 |
| 20260506174227 | 13 | 358 | 1.6 | 9.7 | 0.00 | 0.76 | 0.76 | 52 | 1010.7 |
| 20260506173725 | 14 | 347 | 4.8 | 9.7 | 0.00 | 0.76 | 0.76 | 52 | 1010.7 |
| 20260506173222 | 14 | 349 | 1.6 | 9.7 | 0.00 | 0.76 | 0.76 | 51 | 1010.8 |
| 20260506172719 | 13 | 304 | 6.4 | 11.3 | 0.00 | 0.76 | 0.76 | 51 | 1010.7 |
| 20260506172215 | 13 | 4 | 1.6 | 20.9 | 0.00 | 0.76 | 0.76 | 53 | 1010.8 |
| 20260506171713 | 14 | 341 | 11.3 | 20.9 | 0.00 | 0.76 | 0.76 | 51 | 1010.8 |
| 20260506171210 | 13 | 338 | 8.0 | 17.7 | 0.00 | 0.76 | 0.76 | 55 | 1010.4 |
| 20260506170707 | 13 | 257 | 4.8 | 9.7 | 0.00 | 0.76 | 0.76 | 54 | 1010.3 |
| 20260506170204 | 13 | 303 | 8.0 | 14.5 | 0.00 | 0.76 | 0.76 | 52 | 1010.4 |
| 20260506165702 | 13 | 14 | 9.7 | 12.9 | 0.00 | 0.76 | 0.76 | 55 | 1010.3 |
| 20260506165159 | 13 | 283 | 8.0 | 14.5 | 0.00 | 0.76 | 0.76 | 58 | 1010.8 |
| 20260506164656 | 13 | 357 | 4.8 | 12.9 | 0.00 | 0.76 | 0.76 | 59 | 1011.0 |
| 20260506164153 | 12 | 327 | 8.0 | 12.9 | 0.00 | 0.76 | 0.76 | 58 | 1010.9 |
| 20260506163649 | 13 | 323 | 6.4 | 17.7 | 0.00 | 0.76 | 0.76 | 63 | 1010.7 |
| 20260506163145 | 13 | 333 | 3.2 | 9.7 | 0.00 | 0.76 | 0.76 | 56 | 1010.6 |
| 20260506162641 | 12 | 349 | 1.6 | 8.0 | 0.00 | 0.76 | 0.76 | 61 | 1010.5 |
| 20260506162138 | 12 | 358 | 1.6 | 8.0 | 0.00 | 0.76 | 0.76 | 63 | 1010.3 |
| 20260506161636 | 12 | 299 | 4.8 | 8.0 | 0.00 | 0.76 | 0.76 | 62 | 1010.6 |
| 20260506161132 | 12 | 13 | 3.2 | 11.3 | 0.00 | 0.76 | 0.76 | 67 | 1010.5 |
| 20260506160630 | 12 | 293 | 8.0 | 8.0 | 0.00 | 0.76 | 0.76 | 69 | 1010.4 |
| 20260506160126 | 12 | 19 | 6.4 | 11.3 | 0.00 | 0.76 | 0.76 | 65 | 1010.3 |
| 20260506155626 | 13 | 6 | 1.6 | 3.2 | 0.00 | 0.76 | 0.76 | 68 | 1010.2 |
| 20260506155122 | 12 | 256 | 9.7 | 11.3 | 0.00 | 0.76 | 0.76 | 70 | 1010.3 |
| 20260506153224 | 11 | 345 | 1.6 | 3.2 | 0.00 | 0.76 | 0.76 | 71 | 1010.1 |
| 20260506152721 | 11 | 337 | 4.8 | 11.3 | 0.00 | 0.76 | 0.76 | 71 | 1009.9 |
| 20260506152219 | 11 | 329 | 3.2 | 3.2 | 0.00 | 0.76 | 0.76 | 72 | 1010.1 |
| 20260506151718 | 10 | 344 | 3.2 | 8.0 | 0.00 | 0.76 | 0.76 | 72 | 1010.1 |
| 20260506151214 | 11 | 0 | 3.2 | 9.7 | 0.00 | 0.76 | 0.76 | 74 | 1010.1 |
| 20260506150710 | 10 | 301 | 9.7 | 14.5 | 0.00 | 0.76 | 0.76 | 77 | 1009.9 |
| 20260506150207 | 10 | 302 | 4.8 | 11.3 | 0.00 | 0.76 | 0.76 | 77 | 1010.0 |
| 20260506145704 | 10 | 306 | 6.4 | 9.7 | 0.00 | 0.76 | 0.76 | 79 | 1009.8 |
| 20260506145201 | 10 | 348 | 3.2 | 8.0 | 0.00 | 0.76 | 0.76 | 80 | 1009.9 |
| 20260506144659 | 10 | 326 | 4.8 | 4.8 | 0.00 | 0.76 | 0.76 | 82 | 1010.1 |
| 20260506144155 | 10 | 257 | 8.0 | 9.7 | 0.00 | 0.76 | 0.76 | 84 | 1009.9 |
| 20260506143653 | 10 | 343 | 4.8 | 11.3 | 0.00 | 0.76 | 0.76 | 84 | 1009.7 |
| 20260506143150 | 10 | 356 | 3.2 | 8.0 | 0.00 | 0.76 | 0.76 | 84 | 1009.5 |
| 20260506142649 | 10 | 289 | 6.4 | 9.7 | 0.00 | 0.76 | 0.76 | 84 | 1009.4 |
| 20260506142146 | 10 | 349 | 1.6 | 9.7 | 0.00 | 0.76 | 0.76 | 84 | 1009.0 |
| 20260506141644 | 10 | 351 | 1.6 | 4.8 | 0.00 | 0.76 | 0.76 | 84 | 1009.3 |
| 20260506141142 | 9 | 1 | 1.6 | 4.8 | 0.00 | 0.76 | 0.76 | 86 | 1009.1 |
| 20260506140639 | 8 | 22 | 3.2 | 9.7 | 0.00 | 0.76 | 0.76 | 89 | 1009.3 |
| 20260506140136 | 8 | 332 | 1.6 | 8.0 | 0.00 | 0.76 | 0.76 | 92 | 1009.2 |
| 20260506135633 | 8 | 1 | 1.6 | 11.3 | 0.00 | 0.76 | 0.76 | 93 | 1008.7 |
| 20260506135129 | 8 | 337 | 1.6 | 3.2 | 0.00 | 0.76 | 0.76 | 93 | 1008.9 |
| 20260506134626 | 7 | 271 | 6.4 | 8.0 | 0.00 | 0.76 | 0.76 | 93 | 1008.9 |
| 20260506134122 | 8 | 62 | 8.0 | 14.5 | 0.00 | 0.76 | 0.76 | 93 | 1008.8 |
| 20260506133619 | 8 | 315 | 4.8 | 4.8 | 0.00 | 0.76 | 0.76 | 93 | 1008.7 |
| 20260506133116 | 8 | 346 | 1.6 | 3.2 | 0.00 | 0.76 | 0.76 | 93 | 1008.4 |
| 20260506132614 | 8 | 356 | 0.0 | 3.2 | 0.00 | 0.76 | 0.76 | 93 | 1008.6 |
| 20260506132111 | 8 | 4 | 1.6 | 4.8 | 0.00 | 0.76 | 0.76 | 93 | 1008.6 |
| 20260506131608 | 8 | 2 | 0.0 | 3.2 | 0.00 | 0.76 | 0.76 | 93 | 1008.7 |
| 20260506131104 | 8 | 357 | 3.2 | 3.2 | 0.00 | 0.76 | 0.76 | 93 | 1008.6 |
| 20260506130601 | 7 | 357 | 1.6 | 8.0 | 0.00 | 0.76 | 0.76 | 93 | 1008.6 |
| 20260506130059 | 7 | 318 | 4.8 | 9.7 | 0.00 | 0.76 | 0.76 | 93 | 1008.7 |
| 20260506125557 | 7 | 355 | 1.6 | 3.2 | 0.00 | 0.76 | 0.76 | 93 | 1008.9 |
| 20260506125054 | 7 | 353 | 1.6 | 3.2 | 0.00 | 0.76 | 0.76 | 93 | 1008.8 |
| 20260506124552 | 7 | 358 | 3.2 | 3.2 | 0.00 | 0.76 | 0.76 | 93 | 1008.1 |
| 20260506124049 | 7 | 20 | 3.2 | 4.8 | 0.00 | 0.76 | 0.76 | 93 | 1007.8 |
| 20260506123547 | 8 | 26 | 3.2 | 4.8 | 0.00 | 0.76 | 0.76 | 93 | 1007.9 |
| 20260506123045 | 7 | 324 | 3.2 | 3.2 | 0.00 | 0.76 | 0.76 | 93 | 1008.0 |
| 20260506122541 | 7 | 333 | 3.2 | 3.2 | 0.00 | 0.76 | 0.76 | 93 | 1008.1 |
| 20260506122040 | 7 | 358 | 0.0 | 1.6 | 0.00 | 0.76 | 0.76 | 93 | 1007.8 |
| 20260506121537 | 7 | 333 | 1.6 | 1.6 | 0.00 | 0.76 | 0.76 | 93 | 1007.7 |
| 20260506121033 | 7 | 356 | 1.6 | 4.8 | 0.00 | 0.76 | 0.76 | 93 | 1007.9 |
| 20260506120531 | 7 | 337 | 3.2 | 4.8 | 0.00 | 0.76 | 0.76 | 93 | 1007.8 |
| 20260506120028 | 7 | 16 | 0.0 | 1.6 | 0.00 | 0.76 | 0.76 | 93 | 1007.5 |
| 20260506115526 | 7 | 282 | 4.8 | 8.0 | 0.00 | 0.76 | 0.76 | 93 | 1007.9 |
| 20260506115024 | 7 | 12 | 0.0 | 3.2 | 0.00 | 0.76 | 0.76 | 93 | 1008.1 |
| 20260506114521 | 7 | 356 | 1.6 | 3.2 | 0.00 | 0.76 | 0.76 | 93 | 1008.0 |
| 20260506114020 | 7 | 12 | 1.6 | 3.2 | 0.00 | 0.76 | 0.76 | 93 | 1007.4 |
| 20260506113517 | 7 | 358 | 1.6 | 3.2 | 0.00 | 0.76 | 0.76 | 93 | 1007.6 |
| 20260506113014 | 7 | 343 | 0.0 | 1.6 | 0.00 | 0.76 | 0.76 | 93 | 1007.4 |
| 20260506112511 | 7 | 343 | 1.6 | 8.0 | 0.00 | 0.76 | 0.76 | 93 | 1007.4 |
| 20260506112008 | 7 | 340 | 0.0 | 3.2 | 0.13 | 0.76 | 0.76 | 93 | 1006.9 |
| 20260506111506 | 7 | 66 | 4.8 | 9.7 | 0.13 | 0.76 | 0.76 | 93 | 1006.6 |
| 20260506111003 | 7 | 15 | 1.6 | 8.0 | 0.00 | 0.74 | 0.74 | 93 | 1006.3 |
| 20260506110501 | 7 | 0 | 1.6 | 11.3 | 0.00 | 0.74 | 0.74 | 93 | 1006.7 |
| 20260506105957 | 7 | 354 | 3.2 | 8.0 | 0.00 | 0.74 | 0.74 | 93 | 1006.8 |
| 20260506105453 | 7 | 14 | 4.8 | 8.0 | 0.00 | 0.74 | 0.74 | 93 | 1007.0 |
| 20260506104951 | 7 | 348 | 1.6 | 3.2 | 0.00 | 0.74 | 0.74 | 93 | 1007.0 |
| 20260506104449 | 7 | 351 | 1.6 | 3.2 | 0.00 | 0.74 | 0.74 | 93 | 1007.1 |
| 20260506103947 | 7 | 336 | 0.0 | 8.0 | 0.00 | 0.74 | 0.74 | 93 | 1006.8 |
| 20260506103444 | 7 | 359 | 0.0 | 3.2 | 0.00 | 0.74 | 0.74 | 93 | 1006.7 |
| 20260506102940 | 7 | 3 | 0.0 | 1.6 | 0.00 | 0.74 | 0.74 | 93 | 1006.1 |
| 20260506102438 | 7 | 358 | 0.0 | 1.6 | 0.00 | 0.74 | 0.74 | 93 | 1006.1 |
| 20260506101935 | 7 | 356 | 1.6 | 3.2 | 0.00 | 0.74 | 0.74 | 93 | 1006.1 |
| 20260506101432 | 7 | 336 | 3.2 | 3.2 | 0.00 | 0.74 | 0.74 | 93 | 1005.9 |
| 20260506100929 | 7 | 357 | 1.6 | 1.6 | 0.00 | 0.74 | 0.74 | 93 | 1005.3 |
| 20260506100427 | 7 | 348 | 0.0 | 8.0 | 0.00 | 0.74 | 0.74 | 93 | 1005.4 |
| 20260506095925 | 7 | 57 | 1.6 | 3.2 | 0.00 | 0.74 | 0.74 | 93 | 1005.3 |
| 20260506095424 | 7 | 95 | 3.2 | 8.0 | 0.00 | 0.74 | 0.74 | 93 | 1005.7 |
| 20260506094919 | 7 | 355 | 3.2 | 8.0 | 0.00 | 0.74 | 0.74 | 93 | 1005.6 |
| 20260506094418 | 7 | 349 | 1.6 | 9.7 | 0.00 | 0.74 | 0.74 | 93 | 1005.8 |
| 20260506093915 | 7 | 355 | 0.0 | 4.8 | 0.00 | 0.74 | 0.74 | 93 | 1005.9 |
| 20260506093413 | 7 | 45 | 4.8 | 4.8 | 0.00 | 0.74 | 0.74 | 93 | 1005.5 |
| 20260506092911 | 7 | 328 | 1.6 | 11.3 | 0.00 | 0.74 | 0.74 | 93 | 1005.7 |
| 20260506092409 | 7 | 312 | 4.8 | 8.0 | 0.18 | 0.74 | 0.74 | 93 | 1005.7 |
| 20260506091904 | 8 | 352 | 4.8 | 8.0 | 0.18 | 0.74 | 0.74 | 93 | 1005.6 |
| 20260506091403 | 8 | 59 | 3.2 | 4.8 | 0.13 | 0.71 | 0.71 | 93 | 1005.1 |
| 20260506090900 | 8 | 338 | 3.2 | 11.3 | 0.30 | 0.71 | 0.71 | 93 | 1005.3 |
| 20260506090358 | 8 | 357 | 1.6 | 12.9 | 0.18 | 0.69 | 0.69 | 93 | 1005.2 |
| 20260506085854 | 8 | 19 | 1.6 | 12.9 | 0.00 | 0.66 | 0.66 | 93 | 1005.8 |
| 20260506085350 | 8 | 3 | 3.2 | 9.7 | 0.13 | 0.66 | 0.66 | 93 | 1005.6 |
| 20260506084847 | 8 | 354 | 1.6 | 4.8 | 0.13 | 0.66 | 0.66 | 93 | 1005.7 |
| 20260506084344 | 8 | 7 | 3.2 | 4.8 | 0.18 | 0.64 | 0.64 | 93 | 1005.4 |
| 20260506083840 | 8 | 17 | 0.0 | 9.7 | 0.36 | 0.64 | 0.64 | 93 | 1005.3 |
| 20260506083338 | 8 | 353 | 1.6 | 3.2 | 0.48 | 0.61 | 0.61 | 93 | 1005.6 |
| 20260506082835 | 8 | 7 | 4.8 | 8.0 | 0.18 | 0.56 | 0.56 | 93 | 1005.6 |
| 20260506082332 | 8 | 324 | 3.2 | 14.5 | 0.13 | 0.53 | 0.53 | 93 | 1005.4 |
| 20260506081828 | 9 | 310 | 6.4 | 14.5 | 0.13 | 0.53 | 0.53 | 93 | 1005.2 |
| 20260506081326 | 9 | 348 | 1.6 | 8.0 | 0.00 | 0.51 | 0.51 | 93 | 1005.4 |
| 20260506080823 | 9 | 325 | 4.8 | 4.8 | 0.00 | 0.51 | 0.51 | 93 | 1005.2 |
| 20260506080319 | 9 | 337 | 4.8 | 9.7 | 0.00 | 0.51 | 0.51 | 93 | 1005.2 |
| 20260506073304 | 10 | 6 | 1.6 | 3.2 | 0.18 | 0.51 | 0.51 | 93 | 1004.4 |
| 20260506072800 | 10 | 18 | 3.2 | 4.8 | 0.30 | 0.51 | 0.51 | 93 | 1004.8 |
| 20260506072258 | 10 | 318 | 1.6 | 3.2 | 0.30 | 0.48 | 0.48 | 93 | 1004.6 |
| 20260506071755 | 10 | 357 | 1.6 | 3.2 | 0.18 | 0.46 | 0.46 | 93 | 1004.4 |
| 20260506071254 | 10 | 352 | 1.6 | 3.2 | 0.13 | 0.43 | 0.43 | 93 | 1004.6 |
| 20260506070750 | 10 | 249 | 3.2 | 8.0 | 0.13 | 0.43 | 0.43 | 93 | 1004.6 |
| 20260506070247 | 10 | 355 | 4.8 | 9.7 | 0.18 | 0.41 | 0.41 | 93 | 1004.6 |
| 20260506062224 | 11 | 346 | 0.0 | 0.0 | 0.13 | 0.25 | 0.25 | 93 | 1004.4 |
| 20260506061720 | 11 | 344 | 0.0 | 4.8 | 0.00 | 0.23 | 0.23 | 93 | 1004.6 |
| 20260506061218 | 11 | 341 | 1.6 | 8.0 | 0.18 | 0.23 | 0.23 | 93 | 1004.6 |
| 20260506060716 | 11 | 337 | 1.6 | 3.2 | 0.30 | 0.23 | 0.23 | 93 | 1004.7 |
| 20260506060213 | 11 | 357 | 0.0 | 0.0 | 0.43 | 0.20 | 0.20 | 93 | 1004.4 |
| 20260506051145 | 13 | 328 | 3.2 | 3.2 | 0.00 | 0.00 | 0.00 | 93 | 1005.2 |
| 20260506050643 | 13 | 358 | 0.0 | 0.0 | 0.00 | 0.00 | 0.00 | 93 | 1005.1 |
| 20260506050140 | 13 | 358 | 0.0 | 3.2 | 0.00 | 0.00 | 0.00 | 93 | 1005.1 |
| 20260506045133 | 13 | 18 | 0.0 | 3.2 | 0.00 | 0.00 | 0.00 | 93 | 1005.1 |
| 20260506044631 | 13 | 17 | 0.0 | 0.0 | 0.00 | 0.00 | 0.00 | 93 | 1005.2 |
| 20260506044128 | 13 | 225 | 3.2 | 3.2 | 0.00 | 0.00 | 0.00 | 93 | 1005.5 |
| 20260506043625 | 13 | 11 | 0.0 | 3.2 | 0.00 | 0.00 | 0.00 | 93 | 1005.4 |
| 20260506043123 | 13 | 222 | 3.2 | 3.2 | 0.00 | 0.00 | 0.00 | 93 | 1005.5 |
| 20260506042622 | 13 | 1 | 1.6 | 3.2 | 0.00 | 0.00 | 0.00 | 93 | 1005.4 |
| 20260506042119 | 13 | 137 | 1.6 | 8.0 | 0.00 | 0.00 | 0.00 | 93 | 1005.4 |
| 20260506041618 | 13 | 351 | 1.6 | 3.2 | 0.00 | 0.00 | 0.00 | 93 | 1005.5 |
| 20260506041114 | 13 | 349 | 1.6 | 4.8 | 0.00 | 0.00 | 0.00 | 93 | 1005.7 |
| 20260506040612 | 14 | 313 | 1.6 | 3.2 | 0.18 | 0.00 | 0.00 | 93 | 1005.7 |
| 20260506040108 | 14 | 157 | 3.2 | 4.8 | 0.30 | 0.00 | 0.00 | 93 | 1005.6 |
| 20260506035605 | 14 | 327 | 1.6 | 8.0 | 0.30 | 1.32 | 1.32 | 93 | 1005.9 |
| 20260506035102 | 14 | 348 | 0.0 | 4.8 | 0.30 | 1.30 | 1.30 | 93 | 1006.0 |
| 20260506034559 | 14 | 78 | 1.6 | 3.2 | 0.43 | 1.27 | 1.27 | 93 | 1005.8 |
| 20260506034056 | 14 | 355 | 0.0 | 3.2 | 0.61 | 1.24 | 1.24 | 93 | 1006.1 |
| 20260506033553 | 14 | 59 | 0.0 | 4.8 | 0.48 | 1.19 | 1.19 | 93 | 1006.4 |
| 20260506033050 | 14 | 358 | 0.0 | 3.2 | 0.48 | 1.14 | 1.14 | 93 | 1006.1 |
| 20260506032548 | 14 | 310 | 1.6 | 4.8 | 0.61 | 1.12 | 1.12 | 93 | 1006.1 |
| 20260506032044 | 14 | 307 | 4.8 | 4.8 | 0.48 | 1.07 | 1.07 | 93 | 1006.4 |
| 20260506031542 | 14 | 359 | 0.0 | 3.2 | 0.30 | 1.02 | 1.02 | 93 | 1006.6 |
| 20260506031038 | 14 | 163 | 0.0 | 4.8 | 0.30 | 0.99 | 0.99 | 93 | 1006.5 |
| 20260506030537 | 14 | 330 | 1.6 | 3.2 | 0.30 | 0.97 | 0.97 | 93 | 1006.5 |
| 20260506030034 | 14 | 293 | 1.6 | 1.6 | 0.30 | 0.94 | 0.94 | 93 | 1006.3 |
| 20260506025531 | 14 | 340 | 1.6 | 3.2 | 0.30 | 0.91 | 0.91 | 93 | 1006.3 |
| 20260506025026 | 14 | 346 | 0.0 | 1.6 | 0.30 | 0.89 | 0.89 | 93 | 1006.3 |
| 20260506024524 | 14 | 36 | 0.0 | 1.6 | 0.48 | 0.86 | 0.86 | 93 | 1006.5 |
| 20260506024020 | 14 | 262 | 4.8 | 4.8 | 0.30 | 0.81 | 0.81 | 93 | 1006.7 |
| 20260506023516 | 14 | 357 | 0.0 | 4.8 | 0.43 | 0.79 | 0.79 | 93 | 1006.6 |
| 20260506023014 | 14 | 342 | 0.0 | 1.6 | 0.48 | 0.76 | 0.76 | 93 | 1006.8 |
| 20260506022512 | 15 | 358 | 0.0 | 8.0 | 0.48 | 0.71 | 0.71 | 93 | 1006.7 |
| 20260506022009 | 15 | 330 | 0.0 | 0.0 | 0.43 | 0.66 | 0.66 | 93 | 1006.9 |
| 20260506021506 | 15 | 284 | 4.8 | 4.8 | 0.48 | 0.64 | 0.64 | 93 | 1006.6 |
| 20260506021003 | 15 | 346 | 0.0 | 3.2 | 0.30 | 0.58 | 0.58 | 93 | 1006.5 |
| 20260506020501 | 15 | 0 | 0.0 | 0.0 | 0.43 | 0.56 | 0.56 | 93 | 1006.5 |
| 20260506015957 | 15 | 335 | 0.0 | 4.8 | 0.48 | 0.53 | 0.53 | 93 | 1006.6 |
| 20260506015455 | 15 | 266 | 1.6 | 4.8 | 0.48 | 0.48 | 0.48 | 93 | 1006.6 |
| 20260506014952 | 15 | 358 | 0.0 | 1.6 | 0.43 | 0.46 | 0.46 | 93 | 1006.5 |
| 20260506014449 | 15 | 18 | 0.0 | 3.2 | 0.30 | 0.41 | 0.41 | 93 | 1006.5 |
| 20260506013945 | 15 | 0 | 0.0 | 1.6 | 0.18 | 0.38 | 0.38 | 93 | 1006.3 |
| 20260506013443 | 15 | 295 | 0.0 | 1.6 | 0.18 | 0.36 | 0.36 | 93 | 1006.5 |
| 20260506012939 | 15 | 341 | 0.0 | 0.0 | 0.18 | 0.36 | 0.36 | 93 | 1006.3 |
| 20260506012436 | 15 | 7 | 0.0 | 1.6 | 0.00 | 0.33 | 0.33 | 93 | 1005.9 |
| 20260506011933 | 15 | 28 | 0.0 | 3.2 | 0.00 | 0.33 | 0.33 | 93 | 1006.0 |
| 20260506011430 | 15 | 342 | 0.0 | 0.0 | 0.13 | 0.33 | 0.33 | 93 | 1006.1 |
| 20260506010927 | 15 | 343 | 0.0 | 4.8 | 0.13 | 0.33 | 0.33 | 93 | 1005.9 |
| 20260506010426 | 15 | 356 | 0.0 | 0.0 | 0.00 | 0.30 | 0.30 | 93 | 1005.9 |
| 20260506005922 | 15 | 4 | 0.0 | 1.6 | 0.18 | 0.30 | 0.30 | 93 | 1006.3 |
| 20260506005420 | 15 | 9 | 0.0 | 3.2 | 0.18 | 0.30 | 0.30 | 93 | 1006.6 |
| 20260506004914 | 15 | 2 | 0.0 | 4.8 | 0.00 | 0.28 | 0.28 | 93 | 1006.5 |
| 20260506004413 | 15 | 331 | 0.0 | 1.6 | 0.00 | 0.28 | 0.28 | 93 | 1006.3 |
| 20260506003909 | 15 | 267 | 3.2 | 8.0 | 0.00 | 0.28 | 0.28 | 93 | 1006.5 |
| 20260506003405 | 15 | 244 | 6.4 | 9.7 | 0.00 | 0.28 | 0.28 | 93 | 1006.3 |
| 20260506002902 | 15 | 348 | 0.0 | 4.8 | 0.00 | 0.28 | 0.28 | 93 | 1006.5 |
| 20260506002358 | 15 | 338 | 0.0 | 1.6 | 0.00 | 0.28 | 0.28 | 93 | 1006.6 |
| 20260506001853 | 15 | 348 | 0.0 | 0.0 | 0.00 | 0.28 | 0.28 | 93 | 1006.4 |
| 20260506001350 | 15 | 350 | 0.0 | 1.6 | 0.00 | 0.28 | 0.28 | 93 | 1006.3 |
| 20260506000847 | 15 | 168 | 1.6 | 3.2 | 0.00 | 0.28 | 0.28 | 93 | 1006.5 |
| 20260506000346 | 15 | 335 | 1.6 | 4.8 | 0.00 | 0.28 | 0.28 | 93 | 1006.3 |
| 20260505235842 | 15 | 297 | 1.6 | 3.2 | 0.00 | 0.28 | 0.28 | 93 | 1006.4 |
| 20260505235339 | 15 | 0 | 0.0 | 3.2 | 0.00 | 0.28 | 0.28 | 93 | 1006.4 |
| 20260505234836 | 15 | 355 | 0.0 | 1.6 | 0.00 | 0.28 | 0.28 | 93 | 1006.4 |
| 20260505234334 | 15 | 292 | 1.6 | 3.2 | 0.00 | 0.28 | 0.28 | 93 | 1006.4 |
| 20260505233831 | 15 | 333 | 1.6 | 3.2 | 0.00 | 0.28 | 0.28 | 93 | 1006.3 |
| 20260505233329 | 15 | 330 | 0.0 | 4.8 | 0.00 | 0.28 | 0.28 | 93 | 1006.7 |
| 20260505232826 | 15 | 22 | 1.6 | 1.6 | 0.13 | 0.28 | 0.28 | 93 | 1006.7 |
| 20260505232323 | 15 | 230 | 3.2 | 8.0 | 0.13 | 0.28 | 0.28 | 93 | 1006.5 |
| 20260505231819 | 15 | 355 | 0.0 | 3.2 | 0.00 | 0.25 | 0.25 | 93 | 1006.7 |
| 20260505231318 | 15 | 172 | 1.6 | 4.8 | 0.00 | 0.25 | 0.25 | 93 | 1006.9 |
| 20260505230816 | 15 | 245 | 4.8 | 4.8 | 0.00 | 0.25 | 0.25 | 93 | 1006.8 |
| 20260505230313 | 15 | 349 | 1.6 | 8.0 | 0.18 | 0.25 | 0.25 | 93 | 1006.6 |
| 20260505225809 | 15 | 292 | 4.8 | 4.8 | 0.18 | 0.25 | 0.25 | 93 | 1006.8 |
| 20260505225307 | 15 | 278 | 6.4 | 9.7 | 0.30 | 0.23 | 0.23 | 93 | 1007.0 |
| 20260505224801 | 15 | 229 | 3.2 | 8.0 | 0.71 | 0.23 | 0.23 | 93 | 1006.6 |